Regional Weather Roundup
Issued by NWS Newport/Morehead, NC

Current Version | Previous Version | Text Only | Print | Product List | Glossary Off
Versions: 1 2 3 4 5 6 7 8 9 10 11 12 13 14 15 16 17 18 19 20 21 22 23 24 25 26 27 28 29 30 31 32 33 34 35 36 37 38 39 40 41 42 43 44 45 46 47 48 49 50
482 ASUS42 KMHX 240713 RWRMHX WEATHER ROUNDUP FOR EASTERN NORTH CAROLINA NATIONAL WEATHER SERVICE NEWPORT/MOREHEAD CITY NC 200 AM EST WED JAN 24 2018 NOTE: "FAIR" INDICATES FEW OR NO CLOUDS BELOW 12,000 FEET WITH NO SIGNIFICANT WEATHER AND/OR OBSTRUCTIONS TO VISIBILITY NCZ015>017-031-032-045>047-102-103-240800- NORTH COAST CITY SKY/WX TMP DP RH WIND PRES REMARKS EDENTON FAIR 50 32 50 NW7 29.98R ELIZABETH CITY FAIR 48 38 68 W5 29.96R KITTY HAWK FAIR 47 45 93 CALM 29.94R MANTEO FAIR 41 41 97 CALM 29.96R $$ NCZ045>047-081-094-103-104-240800- CENTRAL COAST CITY SKY/WX TMP DP RH WIND PRES REMARKS FRISCO NOT AVBL $$ NCZ095-097-098-100-101-240800- SOUTHERN COAST CITY SKY/WX TMP DP RH WIND PRES REMARKS BEAUFORT FAIR 47 39 74 W3 29.99R CEDAR ISLAND NOT AVBL JACKSONVILLE FAIR 46 35 65 W8 30.00R PINEY ISLAND NOT AVBL WILMINGTON FAIR 48 35 60 W7 30.02R $$ NCZ011>013-027>030-043-044-078>080-089-090>093-098-240800- COASTAL PLAIN CITY SKY/WX TMP DP RH WIND PRES REMARKS AHOSKIE FAIR 43 28 56 CALM 29.98R CLINTON FAIR 42 33 69 CALM 30.03R ELIZABETHTOWN NOT AVBL GOLDSBORO FAIR 48 29 48 CALM 29.99R GREENVILLE FAIR 46 30 53 CALM 30.02R HAVELOCK CLEAR 50 32 50 W8 30.00R KENANSVILLE FAIR 46 30 53 W5 30.01R KINSTON FAIR 49 30 47 NW8 30.01R NEW BERN FAIR 48 33 56 W6 30.00R RICHLANDS FAIR 47 33 58 W5 30.01R ROCKY MOUNT FAIR 46 29 51 W3 30.00R WASHINGTON FAIR 49 30 48 CALM 29.99R WHITEVILLE FAIR 48 32 53 CALM 30.03R $$ AMZ130-135-150-152-154-156-158-170-250-252-270-ANZ085-086-088-633-658-670-240800- MARINE OBSERVATIONS STATION/POSITION TIME TEMP WIND PRES WAVE SWELL AIR SEA DIR/SP/G HT/PER HT/PER (UTC) (F) (DEG/KT/KT) (MB) (FT/S) (FT/S) CHESAPEAKE LIGHT NOT AVBL 64 E VA BEACH 0650 53 56 10/ 16/ 19 1013.2 6/ 8 5/ 8 DUCK 0642 49 42 360/ 6/ 6 1013.4 2 E DUCK 0700 42 N/A 2/ 9 OREGON INLET 0642 46 48 300/ 3/ 4 1013.7 13E OREGON INLT 0648 41 N/A 5/ 8 5/ 8 HATTERAS CG 0642 54 56 310/ 16/ 19 1013.7 DIAMOND BUOY 0700 61 310/ 21/ 27 1014.0 CAPE LOOKOUT 0600 270/ 11/ 13 1014.8 BEAUFORT LAB 0642 50 50 290/ 2/ 5 1015.3 30 SE NEW RVR IN 0608 57 59 270/ 16/ 19 1015.2 30 SE NEW RVR IN 0700 59 N/A 6/ 8 27 SE WRIGHTSVLE 0608 56 62 270/ 16/ 21 1015.6 5 SE WRIGHTSVLE 0608 51 47 280/ 8/ 12 1015.2 225 S CAPE HAT 0550 71 70 240/ 16/ 19 1015.6 8/ 7 3/ 8 41 SE CHARLESTON 0700 59 310/ 19/ 25 1018.6 $$

USA.gov is the U.S. government's official web portal to all federal, state and local government web resources and services.